Погода в Цюйчжоу

Китай     28°57′25″N   118°52′14″E
темп.,
°C
ветер,
м/с
пор.,
м/с
влажн.,
%
обл.,
%
осадки,
мм/ч
давл.,
гПа
погр.,
м
3 августа, вт
вт323:00+25св24930 0.0 100095
02:00+24св24950 0.0 1000105
05:00+23всв23963 0.0 100188
08:00+27всв34819 0.0 1001501
11:00+31в356837 0.6 10011192
14:00+30всв457529 3.6 10001002
17:00+29всв4782100 2.2 1000680
20:00+26св3691100 2.9 1002202
4 августа, ср
ср423:00+25св3690100 0.0 1002191
02:00+24всв359496 0.0 1001213
05:00+24всв369515 0.0 1002232
08:00+27всв47819 0.0 1003709
11:00+30всв576831 0.1 10021132
14:00+32всв576116 0.1 10001406
17:00+30всв587499 0.3 10001003
20:00+26св398566 0.4 1001302
5 августа, чт
чт523:00+25всв368991 0.0 1002198
02:00+24всв369399 0.0 1001223
05:00+23всв369644 0.0 1001197
08:00+26всв468112 0.0 1002504
11:00+29всв45656 0.0 1001939
14:00+31всв45565 0.0 9991065
17:00+30всв37625 0.0 998733
20:00+26св410795 0.0 1000309
6 августа, пт
пт623:00+25всв36850 0.0 1000153
02:00+24всв25925 0.0 1000132
05:00+23всв24966 0.0 1000116
08:00+26всв358329 0.0 1001514
11:00+30в44679 0.0 10001002
14:00+32в44606 0.0 9991033
17:00+31всв46675 0.2 998806
20:00+27ссв34785 0.2 100091
7 августа, сб
сб723:00+26св348511 0.0 1000114
02:00+24всв2490100 0.0 100093
05:00+24всв2495100 0.0 1000118
08:00+27всв248252 0.0 1001454
11:00+30в346617 0.0 10011040
14:00+32в346516 0.5 9991106
17:00+31в33675 0.4 999998
20:00+26св349034 1.1 100179